AWQ604 VRMM-YPCC

Flight info

Callsign AWQ604
Flight time 4h 7m
Altitude 35000
Route AQAXA1B AQAXA L894 KAMUN T41 CC
Aircraft A320/M-SDE3FGHIRWY/LB1

Departure

Time 2026-04-23 09:20
Airport Velana International Airport (VRMM)

Arrival

Time 2026-04-23 13:27
Airport Cocos (Keeling) Islands Airport (YPCC)
Time Latitude Longitude Altitude Speed Heading
2026-04-23 09:02 4.18302 73.52797 14 ft 0 kts 269°
2026-04-23 09:03 4.18302 73.52798 14 ft 0 kts 269°
2026-04-23 09:09 4.18302 73.52814 37 ft 4 kts 274°
2026-04-23 09:10 4.18298 73.52841 17 ft 4 kts 291°
2026-04-23 09:10 4.18273 73.52864 16 ft 1 kts 359°
2026-04-23 09:10 4.18272 73.52864 16 ft 2 kts 359°
2026-04-23 09:13 4.18300 73.52864 15 ft 9 kts 359°
2026-04-23 09:13 4.18365 73.52863 13 ft 9 kts 359°
2026-04-23 09:13 4.18418 73.52862 13 ft 7 kts 359°
2026-04-23 09:14 4.18465 73.52864 13 ft 9 kts 16°
2026-04-23 09:14 4.18518 73.52929 14 ft 15 kts 29°
2026-04-23 09:14 4.18637 73.52926 14 ft 20 kts
2026-04-23 09:14 4.18789 73.52924 14 ft 22 kts 359°
2026-04-23 09:15 4.18944 73.52921 14 ft 23 kts 357°
2026-04-23 09:15 4.19105 73.52915 14 ft 24 kts 358°
2026-04-23 09:15 4.19270 73.52911 14 ft 24 kts 358°
2026-04-23 09:15 4.19445 73.52906 13 ft 25 kts 359°
2026-04-23 09:16 4.19621 73.52902 13 ft 26 kts 358°
2026-04-23 09:16 4.19798 73.52900 13 ft 25 kts
2026-04-23 09:16 4.19970 73.52897 13 ft 25 kts
2026-04-23 09:16 4.20144 73.52900 13 ft 25 kts 360°
2026-04-23 09:17 4.20321 73.52898 13 ft 26 kts 359°
2026-04-23 09:17 4.20502 73.52895 14 ft 26 kts 359°
2026-04-23 09:17 4.20683 73.52893 14 ft 27 kts 360°
2026-04-23 09:17 4.20869 73.52899 14 ft 27 kts 12°
2026-04-23 09:18 4.20928 73.52988 15 ft 12 kts 90°
2026-04-23 09:18 4.20928 73.53061 17 ft 9 kts 90°
2026-04-23 09:18 4.20907 73.53102 18 ft 6 kts 152°
2026-04-23 09:18 4.20872 73.53105 17 ft 4 kts 185°
2026-04-23 09:19 4.20850 73.53105 17 ft 2 kts 180°
2026-04-23 09:19 4.20801 73.53105 16 ft 27 kts 180°
2026-04-23 09:19 4.20356 73.53105 15 ft 97 kts 179°
2026-04-23 09:19 4.19484 73.53105 14 ft 151 kts 180°
2026-04-23 09:20 4.18312 73.53102 240 ft 173 kts 181°
2026-04-23 09:20 4.17109 73.53096 895 ft 173 kts 181°
2026-04-23 09:20 4.15916 73.53088 1509 ft 170 kts 181°
2026-04-23 09:20 4.14675 73.53090 1768 ft 188 kts 180°
2026-04-23 09:21 4.13285 73.53093 1908 ft 212 kts 180°
2026-04-23 09:21 4.11726 73.53097 2131 ft 236 kts 180°
2026-04-23 09:21 4.10004 73.53100 2428 ft 257 kts 180°
2026-04-23 09:21 4.08179 73.53102 3047 ft 265 kts 180°
2026-04-23 09:22 4.06315 73.53101 3749 ft 269 kts 179°
2026-04-23 09:22 4.04427 73.53102 4450 ft 274 kts 179°
2026-04-23 09:22 4.02532 73.53105 5121 ft 278 kts 179°
2026-04-23 09:22 4.00582 73.53110 5800 ft 282 kts 179°
2026-04-23 09:23 3.98605 73.53114 6466 ft 285 kts 179°
2026-04-23 09:23 3.96605 73.53116 7099 ft 289 kts 179°
2026-04-23 09:23 3.94583 73.53119 7746 ft 292 kts 179°
2026-04-23 09:23 3.92541 73.53124 8388 ft 295 kts 179°
2026-04-23 09:24 3.90469 73.53129 9017 ft 298 kts 179°
2026-04-23 09:24 3.88399 73.53295 9634 ft 301 kts 165°
2026-04-23 09:24 3.86446 73.54060 10183 ft 303 kts 148°
2026-04-23 09:24 3.84767 73.55408 10349 ft 320 kts 129°
2026-04-23 09:25 3.83555 73.57341 10473 ft 337 kts 113°
2026-04-23 09:25 3.82588 73.59506 10750 ft 350 kts 113°
2026-04-23 09:25 3.81575 73.61746 11238 ft 355 kts 113°
2026-04-23 09:25 3.80544 73.64003 11780 ft 358 kts 114°
2026-04-23 09:26 3.79494 73.66279 12320 ft 362 kts 114°
2026-04-23 09:26 3.78431 73.68576 12855 ft 365 kts 114°
2026-04-23 09:26 3.77358 73.70898 13386 ft 368 kts 114°
2026-04-23 09:26 3.76277 73.73237 13873 ft 372 kts 114°
2026-04-23 09:27 3.75190 73.75594 14336 ft 375 kts 114°
2026-04-23 09:27 3.74096 73.77972 14800 ft 377 kts 114°
2026-04-23 09:27 3.72990 73.80380 15264 ft 380 kts 114°
2026-04-23 09:27 3.71883 73.82789 15714 ft 383 kts 114°
2026-04-23 09:28 3.70764 73.85217 16168 ft 385 kts 114°
2026-04-23 09:28 3.69633 73.87670 16621 ft 388 kts 114°
2026-04-23 09:28 3.68496 73.90136 17071 ft 390 kts 114°
2026-04-23 09:28 3.67368 73.92587 17501 ft 393 kts 114°
2026-04-23 09:29 3.66222 73.95080 17939 ft 396 kts 114°
2026-04-23 09:29 3.65068 73.97591 18344 ft 398 kts 114°
2026-04-23 09:29 3.63907 74.00118 18732 ft 400 kts 114°
2026-04-23 09:29 3.62738 74.02663 19121 ft 403 kts 114°
2026-04-23 09:30 3.61559 74.05220 19517 ft 404 kts 114°
2026-04-23 09:30 3.60377 74.07780 19915 ft 406 kts 114°
2026-04-23 09:30 3.59028 74.10274 20309 ft 409 kts 123°
2026-04-23 09:30 3.57239 74.12502 20697 ft 411 kts 134°
2026-04-23 09:31 3.55171 74.14493 21098 ft 413 kts 136°
2026-04-23 09:31 3.53091 74.16479 21493 ft 414 kts 136°
2026-04-23 09:31 3.51001 74.18481 21883 ft 416 kts 136°
2026-04-23 09:31 3.48909 74.20493 22255 ft 418 kts 136°
2026-04-23 09:32 3.46808 74.22515 22609 ft 419 kts 136°
2026-04-23 09:32 3.44700 74.24543 22958 ft 421 kts 136°
2026-04-23 09:32 3.42583 74.26578 23304 ft 423 kts 136°
2026-04-23 09:32 3.40449 74.28625 23605 ft 425 kts 136°
2026-04-23 09:33 3.38310 74.30676 23896 ft 426 kts 136°
2026-04-23 09:33 3.36167 74.32732 24180 ft 427 kts 136°
2026-04-23 09:33 3.34020 74.34795 24467 ft 428 kts 136°
2026-04-23 09:33 3.31870 74.36861 24749 ft 429 kts 136°
2026-04-23 09:34 3.29709 74.38933 25030 ft 430 kts 137°
2026-04-23 09:34 3.27544 74.41009 25296 ft 431 kts 137°
2026-04-23 09:34 3.25378 74.43091 25575 ft 432 kts 137°
2026-04-23 09:34 3.23230 74.45155 25833 ft 433 kts 137°
2026-04-23 09:35 3.21051 74.47252 26091 ft 435 kts 137°
2026-04-23 09:35 3.18868 74.49351 26349 ft 436 kts 137°
2026-04-23 09:35 3.16678 74.51452 26604 ft 437 kts 137°
2026-04-23 09:35 3.14475 74.53561 26863 ft 438 kts 137°
2026-04-23 09:36 3.12269 74.55669 27112 ft 439 kts 137°
2026-04-23 09:36 3.10059 74.57783 27357 ft 440 kts 137°
2026-04-23 09:36 3.07847 74.59903 27598 ft 441 kts 137°
2026-04-23 09:36 3.05634 74.62030 27839 ft 442 kts 137°
2026-04-23 09:37 3.03412 74.64166 28073 ft 443 kts 137°
2026-04-23 09:37 3.01184 74.66303 28303 ft 444 kts 137°
2026-04-23 09:37 2.98949 74.68449 28527 ft 445 kts 137°
2026-04-23 09:37 2.96710 74.70602 28743 ft 446 kts 137°
2026-04-23 09:38 2.94470 74.72754 28952 ft 447 kts 137°
2026-04-23 09:38 2.92242 74.74890 29153 ft 448 kts 137°
2026-04-23 09:38 2.89982 74.77051 29353 ft 449 kts 137°
2026-04-23 09:38 2.87724 74.79212 29551 ft 450 kts 137°
2026-04-23 09:39 2.85461 74.81381 29744 ft 451 kts 137°
2026-04-23 09:39 2.83194 74.83557 29917 ft 452 kts 137°
2026-04-23 09:39 2.80922 74.85733 30065 ft 452 kts 137°
2026-04-23 09:39 2.79415 74.87175 30166 ft 453 kts 137°
2026-04-23 09:40 2.77140 74.89352 30412 ft 451 kts 137°
2026-04-23 09:40 2.74878 74.91519 30658 ft 449 kts 138°
2026-04-23 09:40 2.71891 74.94385 30967 ft 448 kts 138°
2026-04-23 09:40 2.69647 74.96538 31190 ft 447 kts 138°
2026-04-23 09:41 2.68134 74.97987 31335 ft 446 kts 138°
2026-04-23 09:41 2.65890 75.00134 31563 ft 445 kts 138°
2026-04-23 09:41 2.63652 75.02276 31784 ft 444 kts 138°
2026-04-23 09:41 2.61421 75.04415 32004 ft 443 kts 138°
2026-04-23 09:42 2.59198 75.06546 32228 ft 442 kts 138°
2026-04-23 09:42 2.56983 75.08674 32461 ft 441 kts 139°
2026-04-23 09:42 2.54762 75.10804 32677 ft 440 kts 139°
2026-04-23 09:42 2.52554 75.12919 32903 ft 439 kts 139°
2026-04-23 09:43 2.50349 75.15035 33126 ft 438 kts 139°
2026-04-23 09:43 2.48148 75.17148 33349 ft 438 kts 139°
2026-04-23 09:43 2.45978 75.19229 33565 ft 437 kts 139°
2026-04-23 09:43 2.43784 75.21328 33792 ft 436 kts 139°
2026-04-23 09:44 2.41592 75.23427 33982 ft 435 kts 139°
2026-04-23 09:44 2.39410 75.25521 34147 ft 435 kts 139°
2026-04-23 09:44 2.37223 75.27619 34295 ft 435 kts 139°
2026-04-23 09:44 2.35030 75.29718 34443 ft 435 kts 139°
2026-04-23 09:45 2.32843 75.31811 34586 ft 435 kts 139°
2026-04-23 09:45 2.30652 75.33908 34731 ft 435 kts 139°
2026-04-23 09:45 2.28499 75.35970 34863 ft 435 kts 139°
2026-04-23 09:45 2.26311 75.38068 34971 ft 435 kts 139°
2026-04-23 09:46 2.24127 75.40161 34993 ft 434 kts 139°
2026-04-23 09:46 2.19770 75.44332 34994 ft 433 kts 140°
2026-04-23 09:47 2.15414 75.48497 34992 ft 433 kts 139°
2026-04-23 09:47 2.11059 75.52663 34994 ft 433 kts 140°
2026-04-23 09:48 2.06694 75.56828 34993 ft 433 kts 140°
2026-04-23 09:48 2.02345 75.60989 34996 ft 433 kts 139°
2026-04-23 09:49 1.98016 75.65137 35000 ft 433 kts 139°
2026-04-23 09:49 1.93663 75.69304 35000 ft 433 kts 139°
2026-04-23 09:50 1.89313 75.73472 34997 ft 433 kts 139°
2026-04-23 09:50 1.84952 75.77646 34997 ft 433 kts 139°
2026-04-23 09:51 1.80589 75.81817 34998 ft 433 kts 140°
2026-04-23 09:51 1.76227 75.85978 34998 ft 433 kts 139°
2026-04-23 09:52 1.71866 75.90145 35000 ft 433 kts 139°
2026-04-23 09:52 1.67508 75.94324 35002 ft 434 kts 139°
2026-04-23 09:53 1.63155 75.98501 34999 ft 434 kts 139°
2026-04-23 09:53 1.58795 76.02680 34999 ft 434 kts 139°
2026-04-23 09:54 1.54458 76.06825 35001 ft 434 kts 139°
2026-04-23 09:54 1.50080 76.11002 34998 ft 434 kts 139°
2026-04-23 09:55 1.45715 76.15174 34998 ft 434 kts 139°
2026-04-23 09:55 1.41351 76.19356 35001 ft 434 kts 139°
2026-04-23 09:56 1.36985 76.23535 34998 ft 434 kts 139°
2026-04-23 09:56 1.32619 76.27709 34993 ft 434 kts 139°
2026-04-23 09:57 1.28252 76.31882 34991 ft 434 kts 139°
2026-04-23 09:57 1.23915 76.36027 34989 ft 434 kts 139°
2026-04-23 09:58 1.19541 76.40210 34989 ft 434 kts 139°
2026-04-23 09:58 1.15172 76.44387 34987 ft 435 kts 139°
2026-04-23 09:59 1.10800 76.48562 34986 ft 435 kts 139°
2026-04-23 09:59 1.06427 76.52742 34987 ft 435 kts 139°
2026-04-23 10:00 1.02080 76.56900 34983 ft 435 kts 139°
2026-04-23 10:00 0.97699 76.61083 34981 ft 435 kts 139°
2026-04-23 10:01 0.93325 76.65266 34982 ft 435 kts 139°
2026-04-23 10:01 0.88949 76.69456 34983 ft 436 kts 139°
2026-04-23 10:02 0.84563 76.73648 34986 ft 436 kts 139°
2026-04-23 10:02 0.80168 76.77839 34985 ft 437 kts 139°
2026-04-23 10:03 0.75783 76.82037 34989 ft 437 kts 139°
2026-04-23 10:03 0.71378 76.86239 34990 ft 437 kts 139°
2026-04-23 10:04 0.66966 76.90449 34994 ft 438 kts 139°
2026-04-23 10:04 0.62563 76.94661 34999 ft 438 kts 139°
2026-04-23 10:05 0.58164 76.98879 35001 ft 438 kts 139°
2026-04-23 10:05 0.53759 77.03092 35002 ft 438 kts 139°
2026-04-23 10:06 0.49371 77.07285 35002 ft 438 kts 139°
2026-04-23 10:06 0.44960 77.11492 35000 ft 438 kts 139°
2026-04-23 10:07 0.40550 77.15704 35000 ft 438 kts 139°
2026-04-23 10:07 0.36154 77.19903 34995 ft 438 kts 139°
2026-04-23 10:08 0.31752 77.24110 34993 ft 437 kts 139°
2026-04-23 10:08 0.27347 77.28316 34992 ft 438 kts 139°
2026-04-23 10:09 0.20733 77.34628 34993 ft 438 kts 139°
2026-04-23 10:09 0.16334 77.38847 34992 ft 438 kts 139°
2026-04-23 10:10 0.11956 77.43032 34990 ft 437 kts 139°
2026-04-23 10:10 0.07557 77.47231 34991 ft 437 kts 139°
2026-04-23 10:11 0.03152 77.51432 34989 ft 437 kts 139°
2026-04-23 10:11 -0.01252 77.55637 34989 ft 437 kts 139°
2026-04-23 10:12 -0.05642 77.59832 34991 ft 437 kts 138°
2026-04-23 10:12 -0.10038 77.64039 34990 ft 437 kts 138°
2026-04-23 10:13 -0.14421 77.68230 34985 ft 437 kts 138°
2026-04-23 10:13 -0.18818 77.72426 34987 ft 436 kts 138°
2026-04-23 10:14 -0.23209 77.76616 34987 ft 436 kts 138°
2026-04-23 10:14 -0.27596 77.80813 34988 ft 436 kts 138°
2026-04-23 10:15 -0.31960 77.84981 34992 ft 436 kts 138°
2026-04-23 10:15 -0.36358 77.89184 34997 ft 437 kts 138°
2026-04-23 10:16 -0.40750 77.93383 34993 ft 437 kts 138°
2026-04-23 10:16 -0.45117 77.97561 34993 ft 437 kts 138°
2026-04-23 10:17 -0.49518 78.01763 34991 ft 436 kts 138°
2026-04-23 10:17 -0.53914 78.05950 34988 ft 436 kts 138°
2026-04-23 10:18 -0.57570 78.09429 34985 ft 437 kts 138°
2026-04-23 10:18 -0.61982 78.13620 34986 ft 437 kts 138°
2026-04-23 10:19 -0.66393 78.17813 34990 ft 437 kts 137°
2026-04-23 10:19 -0.71508 78.22696 34905 ft 438 kts 137°
2026-04-23 10:20 -0.75191 78.26209 34812 ft 438 kts 137°
2026-04-23 10:20 -0.79647 78.30448 34816 ft 446 kts 137°
2026-04-23 10:21 -0.83168 78.33800 34817 ft 451 kts 137°
2026-04-23 10:21 -0.87739 78.38155 34816 ft 456 kts 137°
2026-04-23 10:22 -0.92344 78.42549 34815 ft 460 kts 137°
2026-04-23 10:22 -0.96999 78.46981 34815 ft 462 kts 137°
2026-04-23 10:23 -1.01646 78.51405 34820 ft 462 kts 137°
2026-04-23 10:23 -1.06271 78.55809 34820 ft 462 kts 137°
2026-04-23 10:24 -1.10920 78.60243 34823 ft 462 kts 137°
2026-04-23 10:24 -1.15576 78.64676 34822 ft 462 kts 137°
2026-04-23 10:25 -1.20230 78.69114 34824 ft 462 kts 137°
2026-04-23 10:25 -1.24887 78.73543 34824 ft 462 kts 137°
2026-04-23 10:26 -1.29543 78.77976 34825 ft 462 kts 137°
2026-04-23 10:26 -1.34203 78.82418 34826 ft 462 kts 137°
2026-04-23 10:27 -1.38853 78.86852 34829 ft 462 kts 137°
2026-04-23 10:27 -1.43500 78.91277 34826 ft 461 kts 137°
2026-04-23 10:28 -1.48145 78.95710 34828 ft 461 kts 137°
2026-04-23 10:28 -1.52787 79.00133 34828 ft 461 kts 137°
2026-04-23 10:29 -1.57434 79.04557 34822 ft 461 kts 137°
2026-04-23 10:29 -1.62079 79.08990 34825 ft 461 kts 137°
2026-04-23 10:30 -1.66720 79.13419 34828 ft 461 kts 137°
2026-04-23 10:30 -1.71369 79.17845 34832 ft 461 kts 137°
2026-04-23 10:31 -1.76012 79.22271 34833 ft 461 kts 137°
2026-04-23 10:31 -1.80649 79.26705 34832 ft 461 kts 137°
2026-04-23 10:32 -1.85297 79.31135 34829 ft 461 kts 137°
2026-04-23 10:32 -1.89911 79.35525 34829 ft 461 kts 137°
2026-04-23 10:33 -1.94553 79.39943 34829 ft 460 kts 137°
2026-04-23 10:33 -1.99182 79.44368 34829 ft 460 kts 137°
2026-04-23 10:34 -2.03814 79.48799 34831 ft 460 kts 137°
2026-04-23 10:34 -2.08442 79.53228 34831 ft 460 kts 137°
2026-04-23 10:35 -2.13070 79.57652 34832 ft 460 kts 137°
2026-04-23 10:35 -2.17698 79.62072 34833 ft 460 kts 137°
2026-04-23 10:36 -2.22332 79.66493 34829 ft 460 kts 137°
2026-04-23 10:36 -2.26958 79.70913 34827 ft 460 kts 137°
2026-04-23 10:37 -2.31580 79.75338 34831 ft 460 kts 137°
2026-04-23 10:37 -2.36200 79.79756 34831 ft 460 kts 137°
2026-04-23 10:38 -2.40832 79.84178 34832 ft 460 kts 137°
2026-04-23 10:38 -2.45453 79.88596 34831 ft 460 kts 137°
2026-04-23 10:39 -2.50074 79.93022 34831 ft 459 kts 137°
2026-04-23 10:39 -2.54691 79.97441 34832 ft 459 kts 137°
2026-04-23 10:40 -2.59284 80.01825 34831 ft 459 kts 137°
2026-04-23 10:40 -2.63908 80.06245 34831 ft 459 kts 137°
2026-04-23 10:41 -2.68520 80.10668 34825 ft 459 kts 137°
2026-04-23 10:41 -2.73141 80.15093 34825 ft 459 kts 137°
2026-04-23 10:42 -2.77771 80.19509 34826 ft 460 kts 137°
2026-04-23 10:42 -2.82403 80.23929 34824 ft 460 kts 137°
2026-04-23 10:43 -2.87000 80.28332 34825 ft 460 kts 137°
2026-04-23 10:43 -2.91611 80.32759 34826 ft 460 kts 137°
2026-04-23 10:44 -2.96232 80.37190 34829 ft 460 kts 137°
2026-04-23 10:44 -3.00863 80.41607 34826 ft 460 kts 137°
2026-04-23 10:45 -3.05520 80.46066 34823 ft 460 kts 137°
2026-04-23 10:45 -3.10116 80.50476 34824 ft 461 kts 137°
2026-04-23 10:46 -3.14755 80.54918 34821 ft 461 kts 137°
2026-04-23 10:46 -3.19393 80.59356 34819 ft 462 kts 137°
2026-04-23 10:47 -3.24039 80.63802 34816 ft 462 kts 137°
2026-04-23 10:47 -3.28694 80.68261 34817 ft 463 kts 137°
2026-04-23 10:48 -3.33345 80.72726 34818 ft 463 kts 137°
2026-04-23 10:48 -3.38002 80.77190 34816 ft 464 kts 137°
2026-04-23 10:49 -3.42661 80.81661 34816 ft 464 kts 137°
2026-04-23 10:49 -3.47331 80.86130 34816 ft 464 kts 137°
2026-04-23 10:50 -3.51549 80.91005 34815 ft 466 kts 122°
2026-04-23 10:50 -3.54735 80.96622 34817 ft 467 kts 121°
2026-04-23 10:51 -3.57961 81.02270 34816 ft 467 kts 121°
2026-04-23 10:51 -3.61193 81.07909 34821 ft 467 kts 121°
2026-04-23 10:52 -3.64421 81.13565 34818 ft 467 kts 121°
2026-04-23 10:52 -3.67638 81.19218 34825 ft 468 kts 121°
2026-04-23 10:53 -3.70867 81.24889 34825 ft 468 kts 121°
2026-04-23 10:53 -3.74092 81.30554 34833 ft 468 kts 121°
2026-04-23 10:54 -3.77318 81.36208 34852 ft 468 kts 120°
2026-04-23 10:54 -3.80536 81.41852 34857 ft 466 kts 120°
2026-04-23 10:55 -3.83745 81.47490 34855 ft 464 kts 120°
2026-04-23 10:55 -3.86938 81.53107 34855 ft 464 kts 120°
2026-04-23 10:56 -3.90113 81.58682 34854 ft 463 kts 120°
2026-04-23 10:56 -3.92788 81.63376 34850 ft 463 kts 120°
2026-04-23 10:57 -3.96502 81.69888 34847 ft 463 kts 120°
2026-04-23 10:57 -3.99150 81.74549 34845 ft 463 kts 120°
2026-04-23 10:58 -4.02332 81.80159 34841 ft 463 kts 120°
2026-04-23 10:58 -4.05522 81.85765 34836 ft 463 kts 120°
2026-04-23 10:59 -4.08714 81.91370 34833 ft 463 kts 120°
2026-04-23 10:59 -4.11898 81.96975 34829 ft 463 kts 120°
2026-04-23 11:00 -4.15083 82.02594 34825 ft 463 kts 120°
2026-04-23 11:00 -4.18278 82.08204 34827 ft 464 kts 120°
2026-04-23 11:01 -4.21473 82.13824 34834 ft 464 kts 120°
2026-04-23 11:01 -4.24667 82.19450 34832 ft 464 kts 120°
2026-04-23 11:02 -4.27860 82.25077 34833 ft 464 kts 120°
2026-04-23 11:02 -4.31035 82.30670 34834 ft 465 kts 120°
2026-04-23 11:03 -4.34239 82.36309 34839 ft 465 kts 120°
2026-04-23 11:03 -4.37435 82.41940 34840 ft 465 kts 120°
2026-04-23 11:04 -4.40635 82.47574 34844 ft 465 kts 120°
2026-04-23 11:04 -4.43834 82.53215 34843 ft 465 kts 120°
2026-04-23 11:05 -4.47032 82.58850 34845 ft 465 kts 120°
2026-04-23 11:05 -4.50228 82.64486 34842 ft 464 kts 120°
2026-04-23 11:06 -4.54997 82.72887 34842 ft 465 kts 120°
2026-04-23 11:07 -4.58184 82.78525 34842 ft 464 kts 120°
2026-04-23 11:07 -4.61373 82.84160 34845 ft 464 kts 120°
2026-04-23 11:08 -4.64558 82.89789 34841 ft 464 kts 120°
2026-04-23 11:08 -4.67751 82.95428 34837 ft 465 kts 120°
2026-04-23 11:09 -4.70945 83.01059 34831 ft 465 kts 120°
2026-04-23 11:09 -4.74148 83.06706 34826 ft 466 kts 120°
2026-04-23 11:10 -4.77355 83.12366 34823 ft 467 kts 120°
2026-04-23 11:10 -4.80564 83.18042 34827 ft 468 kts 120°
2026-04-23 11:11 -4.83775 83.23720 34828 ft 468 kts 120°
2026-04-23 11:11 -4.86972 83.29380 34830 ft 469 kts 120°
2026-04-23 11:12 -4.90192 83.35086 34832 ft 469 kts 120°
2026-04-23 11:12 -4.93423 83.40797 34834 ft 470 kts 120°
2026-04-23 11:13 -4.96629 83.46460 34840 ft 470 kts 120°
2026-04-23 11:13 -4.99863 83.52180 34840 ft 470 kts 120°
2026-04-23 11:14 -5.03095 83.57889 34841 ft 470 kts 119°
2026-04-23 11:14 -5.06323 83.63594 34843 ft 470 kts 119°
2026-04-23 11:15 -5.09553 83.69306 34844 ft 470 kts 119°
2026-04-23 11:15 -5.12774 83.75016 34840 ft 471 kts 119°
2026-04-23 11:16 -5.15995 83.80745 34841 ft 471 kts 119°
2026-04-23 11:16 -5.19222 83.86475 34841 ft 471 kts 119°
2026-04-23 11:17 -5.22457 83.92193 34840 ft 471 kts 119°
2026-04-23 11:17 -5.25670 83.97886 34840 ft 472 kts 119°
2026-04-23 11:18 -5.28908 84.03639 34837 ft 472 kts 119°
2026-04-23 11:18 -5.32136 84.09381 34844 ft 472 kts 119°
2026-04-23 11:19 -5.35366 84.15116 34844 ft 472 kts 119°
2026-04-23 11:19 -5.38610 84.20854 34844 ft 472 kts 119°
2026-04-23 11:20 -5.41841 84.26595 34845 ft 472 kts 119°
2026-04-23 11:20 -5.45068 84.32335 34848 ft 473 kts 119°
2026-04-23 11:21 -5.48303 84.38085 34851 ft 473 kts 119°
2026-04-23 11:21 -5.51533 84.43830 34852 ft 472 kts 119°
2026-04-23 11:22 -5.54767 84.49583 34857 ft 473 kts 119°
2026-04-23 11:22 -5.58000 84.55331 34858 ft 473 kts 119°
2026-04-23 11:23 -5.61234 84.61082 34857 ft 473 kts 119°
2026-04-23 11:23 -5.64445 84.66799 34858 ft 473 kts 119°
2026-04-23 11:24 -5.67672 84.72548 34859 ft 473 kts 118°
2026-04-23 11:24 -5.70899 84.78301 34857 ft 473 kts 118°
2026-04-23 11:25 -5.74122 84.84050 34856 ft 472 kts 118°
2026-04-23 11:25 -5.77367 84.89839 34856 ft 472 kts 118°
2026-04-23 11:26 -5.80571 84.95550 34854 ft 472 kts 118°
2026-04-23 11:26 -5.83800 85.01303 34856 ft 472 kts 118°
2026-04-23 11:27 -5.87026 85.07051 34855 ft 472 kts 118°
2026-04-23 11:27 -5.90257 85.12795 34855 ft 472 kts 118°
2026-04-23 11:28 -5.93481 85.18545 34855 ft 472 kts 118°
2026-04-23 11:28 -5.96694 85.24295 34857 ft 472 kts 118°
2026-04-23 11:29 -5.99906 85.30046 34856 ft 472 kts 118°
2026-04-23 11:29 -6.03124 85.35796 34856 ft 472 kts 118°
2026-04-23 11:30 -6.06345 85.41540 34851 ft 472 kts 118°
2026-04-23 11:30 -6.09568 85.47280 34853 ft 472 kts 118°
2026-04-23 11:31 -6.12782 85.53035 34850 ft 472 kts 118°
2026-04-23 11:31 -6.15990 85.58784 34849 ft 472 kts 118°
2026-04-23 11:32 -6.19211 85.64538 34848 ft 472 kts 118°
2026-04-23 11:32 -6.22428 85.70286 34848 ft 472 kts 118°
2026-04-23 11:33 -6.25646 85.76038 34844 ft 472 kts 118°
2026-04-23 11:33 -6.28316 85.80821 34844 ft 472 kts 118°
2026-04-23 11:34 -6.32049 85.87517 34844 ft 472 kts 118°
2026-04-23 11:34 -6.35254 85.93273 34849 ft 472 kts 118°
2026-04-23 11:35 -6.37933 85.98070 34848 ft 472 kts 118°
2026-04-23 11:35 -6.41153 86.03831 34850 ft 472 kts 119°
2026-04-23 11:36 -6.44364 86.09586 34851 ft 472 kts 118°
2026-04-23 11:36 -6.47567 86.15345 34851 ft 472 kts 119°
2026-04-23 11:37 -6.50770 86.21104 34851 ft 471 kts 119°
2026-04-23 11:37 -6.53973 86.26855 34850 ft 471 kts 119°
2026-04-23 11:38 -6.57193 86.32605 34848 ft 471 kts 119°
2026-04-23 11:38 -6.60398 86.38356 34849 ft 471 kts 119°
2026-04-23 11:39 -6.63596 86.44122 34847 ft 472 kts 119°
2026-04-23 11:39 -6.66802 86.49885 34848 ft 472 kts 119°
2026-04-23 11:40 -6.69999 86.55642 34845 ft 472 kts 119°
2026-04-23 11:40 -6.73204 86.61408 34845 ft 472 kts 119°
2026-04-23 11:41 -6.76410 86.67172 34841 ft 472 kts 119°
2026-04-23 11:41 -6.79614 86.72940 34843 ft 472 kts 119°
2026-04-23 11:42 -6.82822 86.78700 34846 ft 472 kts 120°
2026-04-23 11:42 -6.86027 86.84478 34842 ft 472 kts 120°
2026-04-23 11:43 -6.89233 86.90246 34840 ft 472 kts 120°
2026-04-23 11:43 -6.92417 86.95980 34841 ft 472 kts 120°
2026-04-23 11:44 -6.95620 87.01763 34840 ft 472 kts 120°
2026-04-23 11:44 -6.98822 87.07537 34838 ft 473 kts 120°
2026-04-23 11:45 -7.02018 87.13326 34838 ft 473 kts 120°
2026-04-23 11:45 -7.05228 87.19109 34840 ft 473 kts 120°
2026-04-23 11:46 -7.08442 87.24893 34840 ft 473 kts 120°
2026-04-23 11:46 -7.11652 87.30684 34842 ft 473 kts 120°
2026-04-23 11:47 -7.14860 87.36475 34842 ft 474 kts 120°
2026-04-23 11:47 -7.18069 87.42271 34842 ft 474 kts 120°
2026-04-23 11:48 -7.21279 87.48071 34842 ft 474 kts 120°
2026-04-23 11:48 -7.24483 87.53887 34846 ft 474 kts 120°
2026-04-23 11:49 -7.27688 87.59695 34846 ft 474 kts 120°
2026-04-23 11:49 -7.30906 87.65502 34844 ft 475 kts 120°
2026-04-23 11:50 -7.34120 87.71323 34845 ft 475 kts 120°
2026-04-23 11:50 -7.37319 87.77141 34842 ft 475 kts 120°
2026-04-23 11:51 -7.40522 87.82971 34841 ft 475 kts 120°
2026-04-23 11:51 -7.43725 87.88759 34845 ft 476 kts 120°
2026-04-23 11:52 -7.46951 87.94589 34847 ft 476 kts 120°
2026-04-23 11:52 -7.50170 88.00429 34847 ft 476 kts 120°
2026-04-23 11:53 -7.53392 88.06277 34847 ft 477 kts 120°
2026-04-23 11:53 -7.56611 88.12125 34848 ft 477 kts 120°
2026-04-23 11:54 -7.59806 88.17944 34847 ft 477 kts 120°
2026-04-23 11:54 -7.63025 88.23801 34847 ft 477 kts 120°
2026-04-23 11:55 -7.66249 88.29651 34850 ft 477 kts 120°
2026-04-23 11:55 -7.69468 88.35504 34851 ft 477 kts 120°
2026-04-23 11:56 -7.72685 88.41363 34847 ft 477 kts 120°
2026-04-23 11:56 -7.75908 88.47218 34848 ft 477 kts 120°
2026-04-23 11:57 -7.79125 88.53078 34849 ft 478 kts 120°
2026-04-23 11:57 -7.82345 88.58952 34849 ft 478 kts 120°
2026-04-23 11:58 -7.85565 88.64825 34853 ft 478 kts 120°
2026-04-23 11:58 -7.88782 88.70688 34852 ft 478 kts 120°
2026-04-23 11:59 -7.92002 88.76554 34850 ft 478 kts 120°
2026-04-23 11:59 -7.95203 88.82384 34848 ft 478 kts 120°
2026-04-23 12:00 -7.98418 88.88247 34848 ft 478 kts 120°
2026-04-23 12:00 -8.01634 88.94126 34845 ft 478 kts 120°
2026-04-23 12:01 -8.04844 89.00005 34848 ft 478 kts 120°
2026-04-23 12:01 -8.08054 89.05890 34854 ft 478 kts 120°
2026-04-23 12:02 -8.11270 89.11776 34852 ft 479 kts 120°
2026-04-23 12:02 -8.14496 89.17665 34849 ft 479 kts 120°
2026-04-23 12:03 -8.17723 89.23556 34849 ft 479 kts 120°
2026-04-23 12:03 -8.20950 89.29452 34847 ft 479 kts 120°
2026-04-23 12:04 -8.24142 89.35317 34849 ft 480 kts 120°
2026-04-23 12:04 -8.27361 89.41226 34850 ft 480 kts 120°
2026-04-23 12:05 -8.30592 89.47150 34851 ft 481 kts 120°
2026-04-23 12:05 -8.33821 89.53053 34851 ft 481 kts 120°
2026-04-23 12:06 -8.37037 89.58964 34856 ft 481 kts 120°
2026-04-23 12:06 -8.41888 89.67870 34857 ft 482 kts 120°
2026-04-23 12:07 -8.45113 89.73805 34856 ft 482 kts 120°
2026-04-23 12:07 -8.48334 89.79739 34859 ft 482 kts 120°
2026-04-23 12:08 -8.51568 89.85675 34856 ft 482 kts 120°
2026-04-23 12:08 -8.54798 89.91604 34857 ft 482 kts 120°
2026-04-23 12:09 -8.58029 89.97539 34861 ft 482 kts 120°
2026-04-23 12:09 -8.61261 90.03488 34860 ft 482 kts 120°
2026-04-23 12:10 -8.64486 90.09422 34860 ft 482 kts 120°
2026-04-23 12:10 -8.67707 90.15370 34862 ft 482 kts 120°
2026-04-23 12:11 -8.70384 90.20310 34863 ft 482 kts 120°
2026-04-23 12:11 -8.73631 90.26291 34863 ft 482 kts 120°
2026-04-23 12:12 -8.76849 90.32239 34864 ft 482 kts 120°
2026-04-23 12:12 -8.80068 90.38180 34863 ft 481 kts 120°
2026-04-23 12:13 -8.83290 90.44124 34861 ft 481 kts 120°
2026-04-23 12:13 -8.86508 90.50064 34861 ft 481 kts 120°
2026-04-23 12:14 -8.89702 90.55979 34860 ft 481 kts 120°
2026-04-23 12:14 -8.92906 90.61916 34862 ft 481 kts 120°
2026-04-23 12:15 -8.96120 90.67867 34862 ft 481 kts 120°
2026-04-23 12:15 -8.99329 90.73803 34863 ft 481 kts 120°
2026-04-23 12:16 -9.02539 90.79744 34862 ft 481 kts 120°
2026-04-23 12:16 -9.05756 90.85694 34866 ft 481 kts 120°
2026-04-23 12:17 -9.08959 90.91636 34869 ft 481 kts 120°
2026-04-23 12:17 -9.12170 90.97578 34871 ft 481 kts 120°
2026-04-23 12:18 -9.15379 91.03522 34871 ft 481 kts 120°
2026-04-23 12:18 -9.18583 91.09480 34874 ft 481 kts 120°
2026-04-23 12:19 -9.21777 91.15423 34872 ft 480 kts 120°
2026-04-23 12:19 -9.24980 91.21361 34872 ft 480 kts 120°
2026-04-23 12:20 -9.28156 91.27267 34869 ft 480 kts 120°
2026-04-23 12:20 -9.31338 91.33214 34870 ft 480 kts 120°
2026-04-23 12:21 -9.34527 91.39146 34870 ft 479 kts 120°
2026-04-23 12:21 -9.37715 91.45076 34871 ft 479 kts 120°
2026-04-23 12:22 -9.40898 91.51010 34867 ft 479 kts 120°
2026-04-23 12:22 -9.44083 91.56937 34866 ft 479 kts 120°
2026-04-23 12:23 -9.47272 91.62864 34863 ft 479 kts 120°
2026-04-23 12:23 -9.50447 91.68793 34861 ft 479 kts 120°
2026-04-23 12:24 -9.53621 91.74724 34862 ft 479 kts 120°
2026-04-23 12:24 -9.56799 91.80657 34861 ft 479 kts 120°
2026-04-23 12:25 -9.59969 91.86590 34865 ft 479 kts 120°
2026-04-23 12:25 -9.63141 91.92531 34863 ft 479 kts 120°
2026-04-23 12:26 -9.66320 91.98472 34864 ft 479 kts 120°
2026-04-23 12:26 -9.69502 92.04420 34868 ft 480 kts 120°
2026-04-23 12:27 -9.72686 92.10376 34867 ft 480 kts 120°
2026-04-23 12:27 -9.75863 92.16329 34870 ft 480 kts 120°
2026-04-23 12:28 -9.79040 92.22289 34869 ft 480 kts 120°
2026-04-23 12:28 -9.82215 92.28247 34870 ft 480 kts 120°
2026-04-23 12:29 -9.85398 92.34203 34872 ft 480 kts 120°
2026-04-23 12:29 -9.88568 92.40158 34868 ft 480 kts 120°
2026-04-23 12:30 -9.91744 92.46133 34875 ft 481 kts 120°
2026-04-23 12:30 -9.94894 92.52064 34872 ft 481 kts 120°
2026-04-23 12:31 -9.98067 92.58034 34872 ft 481 kts 120°
2026-04-23 12:31 -10.01252 92.64010 34871 ft 481 kts 120°
2026-04-23 12:32 -10.04435 92.69981 34870 ft 481 kts 120°
2026-04-23 12:32 -10.07614 92.75973 34870 ft 482 kts 120°
2026-04-23 12:33 -10.10795 92.81967 34872 ft 482 kts 120°
2026-04-23 12:33 -10.13974 92.87955 34874 ft 482 kts 120°
2026-04-23 12:34 -10.17144 92.93954 34874 ft 483 kts 120°
2026-04-23 12:34 -10.20327 92.99961 34873 ft 483 kts 120°
2026-04-23 12:35 -10.23518 93.05964 34873 ft 483 kts 120°
2026-04-23 12:35 -10.26700 93.11977 34874 ft 483 kts 120°
2026-04-23 12:36 -10.29877 93.17995 34874 ft 484 kts 120°
2026-04-23 12:36 -10.33063 93.24020 34874 ft 484 kts 120°
2026-04-23 12:37 -10.36252 93.30039 34872 ft 484 kts 120°
2026-04-23 12:37 -10.39418 93.36038 34875 ft 484 kts 120°
2026-04-23 12:38 -10.42603 93.42069 34876 ft 485 kts 120°
2026-04-23 12:38 -10.45796 93.48109 34876 ft 485 kts 120°
2026-04-23 12:39 -10.48980 93.54156 34876 ft 485 kts 120°
2026-04-23 12:39 -10.52168 93.60214 34877 ft 486 kts 120°
2026-04-23 12:40 -10.55357 93.66262 34883 ft 486 kts 120°
2026-04-23 12:40 -10.58548 93.72323 34882 ft 486 kts 120°
2026-04-23 12:41 -10.61733 93.78388 34884 ft 486 kts 120°
2026-04-23 12:41 -10.64920 93.84451 34883 ft 486 kts 120°
2026-04-23 12:42 -10.68109 93.90531 34885 ft 487 kts 120°
2026-04-23 12:42 -10.71298 93.96601 34888 ft 487 kts 120°
2026-04-23 12:43 -10.74494 94.02664 34888 ft 487 kts 120°
2026-04-23 12:43 -10.77677 94.08748 34887 ft 487 kts 120°
2026-04-23 12:44 -10.80857 94.14827 34890 ft 487 kts 120°
2026-04-23 12:44 -10.84049 94.20917 34889 ft 487 kts 120°
2026-04-23 12:45 -10.87239 94.27008 34891 ft 487 kts 120°
2026-04-23 12:45 -10.90417 94.33103 34889 ft 488 kts 119°
2026-04-23 12:46 -10.93507 94.39253 34890 ft 488 kts 118°
2026-04-23 12:46 -10.96552 94.45431 34889 ft 489 kts 118°
2026-04-23 12:47 -10.99614 94.51610 34889 ft 489 kts 118°
2026-04-23 12:47 -11.02692 94.57783 34885 ft 489 kts 118°
2026-04-23 12:48 -11.05253 94.62915 34885 ft 489 kts 118°
2026-04-23 12:48 -11.08334 94.69098 34884 ft 490 kts 118°
2026-04-23 12:49 -11.11418 94.75299 34883 ft 490 kts 118°
2026-04-23 12:49 -11.14494 94.81488 34886 ft 490 kts 118°
2026-04-23 12:50 -11.17572 94.87691 34887 ft 491 kts 118°
2026-04-23 12:50 -11.20655 94.93902 34885 ft 491 kts 118°
2026-04-23 12:51 -11.23737 95.00117 34887 ft 491 kts 119°
2026-04-23 12:51 -11.26825 95.06337 34884 ft 492 kts 119°
2026-04-23 12:52 -11.29913 95.12562 34886 ft 492 kts 118°
2026-04-23 12:52 -11.32997 95.18801 34889 ft 493 kts 119°
2026-04-23 12:53 -11.36076 95.25033 34892 ft 493 kts 118°
2026-04-23 12:53 -11.39159 95.31277 34892 ft 493 kts 119°
2026-04-23 12:54 -11.42250 95.37523 34895 ft 493 kts 119°
2026-04-23 12:54 -11.45336 95.43768 34894 ft 493 kts 119°
2026-04-23 12:55 -11.48422 95.50023 34898 ft 494 kts 119°
2026-04-23 12:55 -11.51506 95.56279 34899 ft 494 kts 119°
2026-04-23 12:56 -11.54578 95.62495 34560 ft 494 kts 119°
2026-04-23 12:56 -11.56120 95.65618 33858 ft 490 kts 119°
2026-04-23 12:56 -11.57639 95.68704 33212 ft 485 kts 119°
2026-04-23 12:57 -11.59140 95.71760 32608 ft 479 kts 120°
2026-04-23 12:57 -11.60623 95.74781 32036 ft 473 kts 120°
2026-04-23 12:57 -11.62095 95.77777 31486 ft 468 kts 120°
2026-04-23 12:57 -11.63544 95.80726 30943 ft 463 kts 120°
2026-04-23 12:58 -11.64979 95.83647 30418 ft 458 kts 121°
2026-04-23 12:58 -11.66402 95.86542 29899 ft 454 kts 121°
2026-04-23 12:58 -11.67806 95.89399 29307 ft 449 kts 121°
2026-04-23 12:58 -11.69202 95.92240 28720 ft 445 kts 120°
2026-04-23 12:59 -11.70585 95.95053 28151 ft 441 kts 120°
2026-04-23 12:59 -11.71948 95.97829 27383 ft 434 kts 120°
2026-04-23 12:59 -11.73289 96.00560 26443 ft 428 kts 119°
2026-04-23 12:59 -11.74619 96.03266 25551 ft 423 kts 118°
2026-04-23 13:00 -11.75948 96.05971 24672 ft 418 kts 118°
2026-04-23 13:00 -11.77243 96.08611 23818 ft 415 kts 118°
2026-04-23 13:00 -11.78529 96.11230 22908 ft 411 kts 117°
2026-04-23 13:00 -11.79801 96.13825 22016 ft 406 kts 117°
2026-04-23 13:01 -11.81054 96.16384 21190 ft 400 kts 117°
2026-04-23 13:01 -11.82288 96.18903 20407 ft 394 kts 117°
2026-04-23 13:01 -11.83504 96.21385 19620 ft 388 kts 116°
2026-04-23 13:01 -11.84699 96.23825 18860 ft 382 kts 116°
2026-04-23 13:02 -11.85867 96.26209 18129 ft 377 kts 116°
2026-04-23 13:02 -11.87032 96.28588 17282 ft 372 kts 116°
2026-04-23 13:02 -11.88180 96.30934 16488 ft 367 kts 116°
2026-04-23 13:02 -11.89312 96.33249 15723 ft 362 kts 116°
2026-04-23 13:03 -11.90426 96.35527 14984 ft 357 kts 116°
2026-04-23 13:03 -11.91511 96.37749 14721 ft 338 kts 116°
2026-04-23 13:03 -11.92535 96.39849 14298 ft 326 kts 116°
2026-04-23 13:03 -11.93539 96.41908 13762 ft 321 kts 116°
2026-04-23 13:04 -11.94529 96.43933 13112 ft 317 kts 116°
2026-04-23 13:04 -11.95509 96.45934 12452 ft 313 kts 116°
2026-04-23 13:04 -11.96485 96.47933 11639 ft 316 kts 116°
2026-04-23 13:04 -11.97465 96.49939 10847 ft 317 kts 116°
2026-04-23 13:05 -11.98449 96.51958 10074 ft 317 kts 116°
2026-04-23 13:05 -11.99430 96.53974 9245 ft 316 kts 116°
2026-04-23 13:05 -12.00405 96.55976 8430 ft 314 kts 116°
2026-04-23 13:05 -12.01377 96.57965 7625 ft 311 kts 116°
2026-04-23 13:06 -12.03272 96.61847 6400 ft 291 kts 115°
2026-04-23 13:06 -12.04156 96.63658 5938 ft 278 kts 115°
2026-04-23 13:06 -12.05000 96.65383 5504 ft 265 kts 115°
2026-04-23 13:07 -12.05805 96.67027 5098 ft 252 kts 116°
2026-04-23 13:07 -12.06571 96.68595 4705 ft 241 kts 116°
2026-04-23 13:07 -12.07302 96.70098 4315 ft 232 kts 115°
2026-04-23 13:07 -12.08021 96.71577 3931 ft 231 kts 115°
2026-04-23 13:08 -12.08735 96.73048 3551 ft 230 kts 115°
2026-04-23 13:08 -12.09448 96.74513 3177 ft 230 kts 116°
2026-04-23 13:08 -12.10150 96.75962 2786 ft 230 kts 116°
2026-04-23 13:08 -12.10858 96.77417 2402 ft 230 kts 115°
2026-04-23 13:09 -12.11671 96.78836 2070 ft 230 kts 133°
2026-04-23 13:09 -12.12962 96.79750 1811 ft 223 kts 147°
2026-04-23 13:09 -12.14285 96.80527 1517 ft 210 kts 147°
2026-04-23 13:09 -12.15530 96.81250 934 ft 206 kts 148°
2026-04-23 13:10 -12.16729 96.81940 786 ft 190 kts 149°
2026-04-23 13:10 -12.17898 96.82608 787 ft 198 kts 149°
2026-04-23 13:10 -12.19140 96.83311 780 ft 207 kts 149°
2026-04-23 13:10 -12.20399 96.84011 791 ft 207 kts 149°
2026-04-23 13:11 -12.21689 96.84699 1437 ft 208 kts 149°
2026-04-23 13:11 -12.22990 96.85387 1855 ft 210 kts 152°
2026-04-23 13:11 -12.24436 96.85661 1992 ft 219 kts 184°
2026-04-23 13:11 -12.25851 96.85039 2022 ft 228 kts 217°
2026-04-23 13:12 -12.26837 96.83749 2029 ft 234 kts 236°
2026-04-23 13:12 -12.27656 96.82310 2028 ft 235 kts 238°
2026-04-23 13:12 -12.28448 96.80849 2023 ft 235 kts 238°
2026-04-23 13:12 -12.29231 96.79394 2026 ft 233 kts 238°
2026-04-23 13:13 -12.30019 96.77934 2026 ft 235 kts 238°
2026-04-23 13:13 -12.30752 96.76445 2024 ft 235 kts 250°
2026-04-23 13:13 -12.30835 96.74796 2022 ft 235 kts 285°
2026-04-23 13:13 -12.30046 96.73369 2028 ft 232 kts 320°
2026-04-23 13:14 -12.28658 96.72618 2027 ft 225 kts 354°
2026-04-23 13:14 -12.27153 96.72775 2025 ft 217 kts 30°
2026-04-23 13:14 -12.26008 96.73714 2031 ft 210 kts 54°
2026-04-23 13:14 -12.24992 96.74781 2023 ft 213 kts 35°
2026-04-23 13:15 -12.23545 96.75194 2030 ft 224 kts
2026-04-23 13:15 -12.21986 96.74959 2033 ft 228 kts 350°
2026-04-23 13:15 -12.20449 96.74566 2026 ft 227 kts 348°
2026-04-23 13:15 -12.18924 96.74150 2026 ft 227 kts 349°
2026-04-23 13:16 -12.17401 96.73708 2030 ft 228 kts 348°
2026-04-23 13:16 -12.15890 96.73264 2027 ft 228 kts 348°
2026-04-23 13:16 -12.14369 96.72838 2023 ft 226 kts 348°
2026-04-23 13:16 -12.12935 96.72118 2028 ft 232 kts 323°
2026-04-23 13:17 -12.11734 96.71031 2025 ft 235 kts 318°
2026-04-23 13:17 -12.10556 96.69861 2024 ft 236 kts 317°
2026-04-23 13:17 -12.09384 96.68680 2027 ft 237 kts 317°
2026-04-23 13:17 -12.08211 96.67503 2025 ft 236 kts 317°
2026-04-23 13:18 -12.07166 96.66204 2027 ft 237 kts 308°
2026-04-23 13:18 -12.06227 96.64821 2027 ft 236 kts 306°
2026-04-23 13:18 -12.05302 96.63431 2025 ft 236 kts 306°
2026-04-23 13:18 -12.04377 96.62047 2023 ft 236 kts 311°
2026-04-23 13:19 -12.03152 96.60994 2023 ft 228 kts 339°
2026-04-23 13:19 -12.01649 96.60615 2027 ft 220 kts
2026-04-23 13:19 -12.00195 96.60933 2030 ft 217 kts 30°
2026-04-23 13:19 -11.99017 96.61849 2027 ft 210 kts 55°
2026-04-23 13:20 -11.98338 96.63130 2027 ft 205 kts 77°
2026-04-23 13:20 -11.98228 96.64565 2024 ft 202 kts 99°
2026-04-23 13:20 -11.98682 96.65908 2022 ft 199 kts 121°
2026-04-23 13:20 -11.99560 96.66941 2023 ft 188 kts 134°
2026-04-23 13:21 -12.00492 96.67855 2025 ft 184 kts 134°
2026-04-23 13:21 -12.01411 96.68765 2023 ft 183 kts 134°
2026-04-23 13:21 -12.02320 96.69668 2024 ft 183 kts 133°
2026-04-23 13:21 -12.03229 96.70575 2027 ft 182 kts 133°
2026-04-23 13:22 -12.03824 96.71169 2048 ft 175 kts 133°
2026-04-23 13:22 -12.04651 96.71989 2035 ft 157 kts 133°
2026-04-23 13:22 -12.05397 96.72729 2016 ft 143 kts 132°
2026-04-23 13:22 -12.06095 96.73425 2018 ft 138 kts 132°
2026-04-23 13:23 -12.06776 96.74107 2021 ft 136 kts 132°
2026-04-23 13:23 -12.07454 96.74785 2026 ft 136 kts 133°
2026-04-23 13:23 -12.08131 96.75465 1937 ft 135 kts 133°
2026-04-23 13:23 -12.08803 96.76137 1931 ft 135 kts 133°
2026-04-23 13:24 -12.09477 96.76808 1932 ft 135 kts 133°
2026-04-23 13:24 -12.10155 96.77484 1818 ft 135 kts 133°
2026-04-23 13:24 -12.10827 96.78154 1707 ft 136 kts 133°
2026-04-23 13:24 -12.11497 96.78818 1571 ft 134 kts 135°
2026-04-23 13:25 -12.12168 96.79259 1427 ft 135 kts 146°
2026-04-23 13:25 -12.12976 96.79736 1242 ft 133 kts 146°
2026-04-23 13:25 -12.13769 96.80191 1025 ft 132 kts 148°
2026-04-23 13:25 -12.14579 96.80624 857 ft 131 kts 149°
2026-04-23 13:26 -12.15388 96.81065 726 ft 133 kts 147°
2026-04-23 13:26 -12.16183 96.81530 505 ft 131 kts 145°
2026-04-23 13:26 -12.16966 96.82033 273 ft 136 kts 142°
2026-04-23 13:26 -12.17773 96.82546 96 ft 134 kts 146°
2026-04-23 13:27 -12.18558 96.83025 16 ft 122 kts 147°
2026-04-23 13:27 -12.19076 96.83341 17 ft 45 kts 148°
2026-04-23 13:27 -12.19207 96.83419 17 ft 17 kts 152°
2026-04-23 13:27 -12.19312 96.83477 18 ft 17 kts 148°
2026-04-23 13:28 -12.19412 96.83543 18 ft 17 kts 147°
2026-04-23 13:28 -12.19513 96.83613 17 ft 12 kts 142°
2026-04-23 13:28 -12.19531 96.83614 17 ft 1 kts 234°
2026-04-23 13:28 -12.19530 96.83605 19 ft 2 kts 275°
2026-04-23 13:29 -12.19519 96.83595 19 ft 5 kts 323°
2026-04-23 13:29 -12.19450 96.83559 19 ft 13 kts 332°
2026-04-23 13:29 -12.19378 96.83518 18 ft 11 kts 330°
2026-04-23 13:29 -12.19313 96.83480 18 ft 11 kts 330°
2026-04-23 13:30 -12.19240 96.83437 17 ft 17 kts 330°
2026-04-23 13:30 -12.19099 96.83352 16 ft 28 kts 329°
2026-04-23 13:30 -12.18922 96.83245 13 ft 30 kts 330°
2026-04-23 13:30 -12.18743 96.83138 13 ft 28 kts 329°
2026-04-23 13:31 -12.18664 96.83054 14 ft 10 kts 257°
2026-04-23 13:31 -12.18682 96.82997 14 ft 7 kts 281°
2026-04-23 13:31 -12.18661 96.82960 14 ft 5 kts 309°
2026-04-23 13:31 -12.18635 96.82946 14 ft 4 kts 351°
2026-04-23 13:32 -12.18610 96.82949 16 ft 4 kts 11°
2026-04-23 13:32 -12.18570 96.82950 14 ft 9 kts 345°
2026-04-23 13:32 -12.18557 96.82908 14 ft 5 kts 233°
2026-04-23 13:32 -12.18586 96.82902 15 ft 0 kts 183°